Temp
14 13 12 11 10 9 9 9 10 11 11 10 10 11 11 11 11 11 11 11 12 12 11 10 10 10 9 9 9 10 9 9
14 14 13 12 11 10 10 11 11 10 10 12 12 11 11 11 11 11 11 11 11 11 10 10 10 10 9 9 9 9 8 9
15 14 13 13 12 12 11 11 11 11 12 12 12 12 12 12 12 11 11 11 10 10 10 9 9 10 9 9 8 9 9 8
17 16 14 13 13 12 12 13 12 11 12 13 13 13 12 12 12 11 10 10 10 10 10 9 9 9 8 8 10 9 9 8
19 17 16 15 14 13 13 13 13 12 12 13 13 13 12 11 11 11 10 10 10 10 10 9 8 8 8 9 9 8 9 7
20 19 18 16 15 14 14 14 14 14 13 13 13 13 12 12 11 10 10 10 11 10 10 9 8 8 8 8 7 9 8 8
21 20 19 18 17 16 15 14 14 14 14 13 12 12 11 12 11 10 9 9 11 10 10 10 10 9 8 8 8 8 7 7
21 21 20 19 18 17 15 15 15 14 14 12 13 13 12 12 11 12 10 9 9 10 10 10 10 9 8 7 7 7 7 6
22 22 21 20 19 17 16 15 15 14 13 15 13 14 12 12 11 11 10 9 9 11 10 9 8 7 6 6 7 7 6 5
22 22 22 21 20 19 16 15 14 13 13 14 14 15 14 13 11 10 9 9 11 10 9 8 7 6 7 7 7 6 5 4
23 22 22 22 21 20 18 16 15 13 15 13 14 14 12 11 10 10 10 10 9 9 9 8 7 7 7 5 5 4 4 2
21 20 21 21 21 20 18 16 16 14 13 12 13 13 12 12 11 10 9 9 10 9 8 7 7 7 5 4 4 3 2 2
21 20 19 19 19 18 18 16 16 15 13 11 11 10 10 11 11 10 9 9 8 8 7 7 6 4 3 3 4 1 1 1
21 19 18 18 17 17 16 15 15 16 14 13 12 11 11 11 10 10 9 8 8 8 7 6 3 3 2 3 2 1 0 0
21 20 18 17 16 16 15 15 15 15 14 13 12 11 11 10 9 9 8 8 7 7 6 3 3 2 2 1 0 0 -1 0
20 19 18 16 15 14 14 12 12 11 11 10 10 9 8 8 8 8 8 7 6 5 4 3 2 1 1 1 0 -0 -1 0
18 18 17 15 14 13 11 10 9 9 9 9 8 7 7 6 6 5 5 6 6 4 3 3 2 2 1 1 -0 -1 -1 -0
16 16 15 13 12 11 10 9 9 9 8 7 7 6 5 6 6 6 6 5 5 4 3 3 2 1 0 -0 -1 -2 -1 -1
13 13 12 11 11 10 9 9 8 8 7 7 6 5 5 5 5 5 4 4 3 2 2 1 1 -1 -1 -1 -2 -1 -1 -2
Height
1511 1514 1517 1521 1523 1526 1530 1534 1537 1541 1545 1548 1552 1554 1556 1559 1559 1561 1560 1563 1563 1565 1568 1568 1570 1572 1572 1574 1573 1573 1575 1575
1510 1514 1517 1520 1523 1526 1530 1534 1537 1540 1543 1547 1550 1550 1553 1555 1557 1559 1559 1562 1561 1563 1567 1565 1567 1569 1571 1569 1569 1570 1572 1570
1506 1511 1514 1517 1521 1524 1528 1531 1534 1537 1540 1543 1545 1548 1551 1553 1555 1555 1557 1558 1559 1561 1562 1562 1563 1566 1566 1566 1568 1568 1568 1569
1499 1505 1509 1513 1516 1520 1524 1527 1530 1532 1536 1541 1544 1546 1547 1549 1551 1552 1552 1554 1556 1557 1557 1559 1559 1563 1561 1562 1563 1564 1566 1567
1492 1498 1502 1506 1510 1515 1519 1523 1527 1530 1534 1537 1540 1542 1544 1545 1548 1549 1549 1548 1550 1551 1551 1553 1556 1558 1559 1557 1558 1558 1560 1562
1485 1490 1495 1500 1505 1508 1512 1517 1522 1526 1527 1531 1535 1538 1540 1541 1543 1544 1544 1542 1544 1545 1546 1548 1551 1553 1553 1554 1554 1555 1556 1556
1480 1483 1489 1493 1499 1503 1507 1512 1515 1520 1523 1526 1531 1534 1536 1536 1536 1537 1539 1538 1538 1540 1541 1541 1544 1546 1547 1548 1548 1550 1553 1552
1473 1477 1481 1487 1492 1497 1502 1505 1509 1513 1516 1520 1521 1522 1529 1529 1531 1531 1532 1533 1532 1533 1534 1536 1538 1541 1543 1544 1544 1545 1545 1548
1465 1469 1475 1480 1485 1490 1495 1498 1503 1505 1510 1511 1518 1516 1518 1520 1523 1524 1525 1528 1526 1527 1530 1531 1534 1536 1538 1538 1540 1540 1543 1544
1459 1463 1468 1473 1479 1483 1487 1492 1496 1498 1500 1504 1510 1510 1511 1514 1515 1518 1520 1518 1519 1521 1524 1526 1529 1531 1531 1534 1535 1536 1536 1538
1455 1457 1460 1465 1470 1476 1481 1486 1489 1491 1493 1499 1504 1501 1504 1508 1510 1511 1510 1512 1513 1515 1518 1520 1522 1524 1527 1529 1531 1531 1532 1535
1455 1456 1458 1461 1464 1470 1475 1480 1484 1485 1488 1493 1495 1498 1499 1502 1504 1506 1506 1507 1507 1509 1513 1515 1517 1518 1519 1523 1524 1527 1530 1530
1454 1456 1457 1459 1461 1466 1470 1475 1478 1482 1483 1488 1492 1495 1496 1497 1498 1501 1501 1502 1503 1506 1507 1509 1511 1513 1516 1516 1520 1522 1523 1522
1452 1455 1457 1458 1460 1463 1467 1471 1475 1479 1481 1483 1488 1490 1492 1493 1494 1496 1497 1498 1499 1501 1502 1504 1506 1508 1511 1513 1516 1514 1516 1517
1450 1452 1455 1458 1460 1462 1465 1469 1472 1476 1479 1483 1484 1484 1487 1488 1489 1491 1493 1494 1495 1496 1498 1500 1501 1502 1509 1509 1508 1508 1509 1514
1448 1450 1453 1456 1459 1462 1464 1466 1469 1471 1475 1479 1480 1480 1482 1484 1486 1487 1488 1490 1491 1492 1494 1495 1500 1501 1502 1502 1505 1507 1507 1507
1447 1449 1452 1454 1457 1460 1462 1465 1467 1470 1473 1476 1477 1478 1481 1482 1484 1484 1485 1486 1487 1490 1491 1492 1495 1498 1499 1500 1502 1504 1502 1501
1446 1449 1452 1454 1456 1458 1460 1462 1465 1468 1469 1471 1474 1475 1476 1477 1478 1479 1481 1483 1485 1487 1489 1491 1494 1496 1496 1496 1497 1498 1496 1495
1446 1448 1451 1453 1455 1457 1459 1462 1463 1465 1467 1468 1470 1472 1473 1474 1475 1477 1479 1481 1483 1485 1487 1489 1491 1493 1492 1493 1493 1492 1490 1488
Wind_Speed
17 20 22 21 24 30 29 26 28 24 22 18 15 17 18 19 20 19 18 16 17 15 12 15 13 11 10 10 9 7 6 5
20 21 23 25 25 31 29 22 18 19 19 19 17 16 17 24 19 19 17 14 16 17 14 16 14 12 12 14 11 8 6 7
22 24 26 26 26 27 27 25 22 22 18 17 17 17 18 17 16 16 16 17 17 17 16 15 15 14 17 14 12 8 6 9
25 27 29 29 29 29 27 25 24 23 18 17 17 17 19 20 20 18 18 20 19 18 18 17 16 18 16 16 15 12 7 9
26 28 30 31 31 29 27 25 24 24 21 22 21 21 19 20 20 20 19 25 23 22 23 19 21 17 16 17 16 13 13 7
26 28 29 30 30 32 31 28 26 24 24 25 22 23 20 19 19 20 19 28 27 27 24 22 23 21 22 19 17 17 16 13
26 27 27 28 29 31 33 30 29 27 26 26 24 20 24 21 18 22 23 24 25 28 27 27 29 27 24 23 23 20 15 14
29 29 29 29 30 31 31 30 30 29 29 28 29 22 27 27 31 35 33 26 26 29 32 30 29 27 26 22 24 21 19 16
31 31 31 30 29 30 30 30 32 33 31 27 25 22 33 33 39 40 38 27 31 29 28 26 28 27 24 28 22 23 20 16
31 31 31 30 30 31 33 30 31 34 38 31 24 17 32 36 39 36 30 35 30 26 27 27 27 29 31 27 27 23 19 17
17 23 30 32 30 29 30 30 30 34 35 32 33 30 28 32 31 28 32 30 28 28 29 30 30 31 31 29 24 22 16 9
6 11 18 21 25 27 28 28 28 29 26 34 37 30 25 21 22 27 30 22 22 27 30 31 32 31 29 27 25 15 11 12
5 8 10 13 17 21 23 23 26 25 32 28 31 24 22 23 21 25 27 24 22 22 28 29 29 24 22 28 21 13 17 15
6 7 8 10 13 16 18 19 20 21 23 22 23 21 20 20 24 26 27 23 23 24 27 23 24 27 26 22 20 23 18 15
8 9 9 10 11 14 15 16 16 17 18 16 17 24 24 24 26 25 23 20 20 22 21 22 28 24 23 20 23 27 21 26
10 11 11 12 13 13 14 14 15 13 13 13 12 14 16 14 13 15 13 13 13 16 20 25 22 21 24 28 28 23 24 29
9 11 12 13 13 15 14 13 13 12 12 11 9 9 8 8 8 12 12 12 13 15 18 21 21 23 22 27 27 19 28 34
11 12 13 14 14 15 15 14 14 14 14 11 10 10 8 8 8 8 9 9 9 9 11 13 13 16 24 24 20 28 33 34
15 16 16 17 17 17 17 16 15 14 13 10 9 8 7 6 6 6 5 4 4 5 8 11 14 12 13 18 23 27 27 21
Wind_Direction
163 159 163 163 165 162 160 163 169 179 189 188 203 208 208 210 220 216 221 212 219 210 210 215 210 204 200 195 196 206 202 214
170 169 168 169 175 181 184 187 189 191 190 202 209 206 212 219 221 218 220 206 224 223 214 226 211 204 204 206 211 216 222 280
182 185 186 183 185 188 194 200 202 206 201 205 207 210 213 219 228 225 211 217 221 218 213 223 216 206 207 215 207 216 223 262
192 193 196 197 198 199 202 205 209 209 203 208 209 213 216 216 218 225 224 220 221 221 221 222 215 210 217 220 238 239 238 260
199 200 201 204 206 206 207 207 212 214 207 214 211 216 221 226 221 224 222 230 223 222 228 220 225 214 217 234 237 234 241 248
204 204 207 208 208 209 210 209 210 212 219 208 215 219 224 230 226 225 221 236 234 230 235 232 227 222 227 234 231 244 253 270
209 209 206 209 210 211 212 210 212 211 217 221 214 224 229 234 231 239 227 240 241 233 232 241 243 235 238 242 244 245 258 260
210 210 209 208 210 211 211 210 211 209 209 219 225 229 250 255 252 251 251 239 239 240 241 250 247 237 238 236 243 248 262 257
214 214 214 213 212 212 211 211 209 204 215 226 221 249 243 241 249 256 255 242 248 256 252 249 244 237 233 240 245 257 259 256
216 220 218 218 218 216 212 211 210 212 213 212 214 268 243 244 247 251 257 248 254 257 253 247 240 233 241 249 248 253 249 247
231 229 227 224 222 218 214 215 214 215 225 213 209 236 238 238 240 248 239 258 253 250 247 243 241 244 247 241 244 240 242 241
217 222 225 227 224 216 214 214 215 216 224 212 211 232 235 240 239 232 249 257 254 247 244 245 240 240 238 235 235 234 227 226
187 196 200 203 205 207 208 208 207 210 211 212 213 226 236 250 237 231 248 258 252 241 237 244 237 235 222 229 231 216 217 222
193 186 190 190 187 187 192 196 197 199 204 208 219 232 229 223 236 237 245 247 243 240 241 240 226 225 230 228 200 215 222 256
221 192 181 176 175 174 177 178 182 187 194 199 206 220 227 226 233 243 253 254 248 246 235 215 226 229 215 209 220 238 257 263
214 196 179 170 166 163 163 165 169 170 173 184 204 217 245 249 242 245 245 247 247 231 223 226 236 218 221 240 254 270 250 278
201 188 172 165 160 156 153 151 151 160 158 160 173 161 167 177 179 194 208 220 233 231 230 235 231 233 261 268 273 242 258 284
166 162 159 153 150 144 142 139 136 137 136 135 139 147 164 184 204 218 223 229 236 243 238 248 255 266 278 276 258 248 269 288
154 149 144 139 136 132 127 128 127 127 127 132 138 149 154 171 178 191 194 201 206 214 224 237 256 274 259 265 268 273 284 290